Location: Madrid
(40.4000°N, 3.6830°W)
Time: 16:19:26
(UTC+02:00)

ISS - Pass Details

Date: 13 September 2019
Orbit: 411 x 421 km, 51.6° (Epoch: 18 September)

Event Time Altitude Azimuth Distance (km) Brightness Sun altitude
Exits shadow 07:03:52 - 304° (NW) 1,782 -1.0 -10.1°
Reaches altitude 10° 07:04:35 10° 303° (WNW) 1,489 -1.4 -9.9°
Maximum altitude 07:07:55 72° 220° (SW) 441 -3.8 -9.3°
Drops below altitude 10° 07:11:14 10° 135° (SE) 1,487 -0.5 -8.7°
Sets 07:13:20 0° 133° (SE) 2,348 0.6 -8.3°
